Location: Saluda
(35.2377°N, 82.3468°W)
Time: 19:31:01
(UTC+00:00)

Vanguard 3 - Pass Details

Date: 07 October 2022
Orbit: 509 x 3255 km, 33.3° (Epoch: 01 December)

Event Time Altitude Azimuth Distance (km) Brightness Sun altitude
Rises 10:44:34 0° 211° (SSW) 2,930 9.7 -9.9°
Reaches altitude 10° 10:48:11 10° 181° (S) 1,796 8.9 -9.1°
Maximum altitude 10:49:56 13° 154° (SSE) 1,574 9.0 -8.8°
Drops below altitude 10° 10:51:37 10° 126° (SE) 1,712 9.8 -8.4°
Sets 10:54:52 0° 95° (E) 2,652 12.4 -7.8°
